Location: Newark
(40.9833°N, 0.0333°W)
Time: 17:34:05
(UTC+00:00)

Transit 4A - Pass Details

Date: 06 November 2020
Orbit: 862 x 982 km, 66.8° (Epoch: 23 November)

Event Time Altitude Azimuth Distance (km) Brightness Sun altitude
Rises 13:04:31 0° 211° (SSW) 3,583 12.1 29.8°
Reaches altitude 10° 13:07:00 10° 212° (SSW) 2,659 11.9 29.6°
Maximum altitude 13:13:14 81° 299° (WNW) 982 8.6 29.2°
Drops below altitude 10° 13:19:40 10° 28° (NNE) 2,734 9.9 28.6°
Sets 13:22:16 0° 30° (NNE) 3,691 10.5 28.4°
